PRIVATE WETTERSTATION BILLIGHEIM-ALLFELD                       ZURCK
Wetterdaten: Montag, 04.08.2014
Datum Zeit Temp. A. Temp. A. min Temp. A. max Feuchte A. Luftdruck Regen Wind Richtung Richtung Sonnenschein ET Solar Taupunkt Windchill Windben Empfang
04.08.2014 00:00 17,6 C 17,6 C 17,6 C 87 % 1012,2 hPa 0,0 l/m 0,0 km/h (0 Bft) N 0 0 min 0,000 mm 0 W/m 15,4 C 17,6 C 0,0 km/h (0 Bft) 100 %
04.08.2014 00:10 17,5 C 17,5 C 17,6 C 87 % 1012,2 hPa 0,0 l/m 0,0 km/h (0 Bft) SO 135 0 min 0,000 mm 0 W/m 15,3 C 17,5 C 1,6 km/h (1 Bft) 99 %
04.08.2014 00:20 17,5 C 17,5 C 17,5 C 87 % 1012,3 hPa 0,0 l/m 0,0 km/h (0 Bft) N 0 0 min 0,000 mm 0 W/m 15,3 C 17,5 C 0,0 km/h (0 Bft) 100 %
04.08.2014 00:30 17,3 C 17,3 C 17,5 C 87 % 1012,4 hPa 0,0 l/m 0,0 km/h (0 Bft) S-SO 157 0 min 0,000 mm 0 W/m 15,1 C 17,3 C 3,2 km/h (1 Bft) 99 %
04.08.2014 00:40 17,2 C 17,2 C 17,2 C 87 % 1012,4 hPa 0,0 l/m 0,0 km/h (0 Bft) N 0 0 min 0,000 mm 0 W/m 15,0 C 17,2 C 0,0 km/h (0 Bft) 100 %
04.08.2014 00:50 17,2 C 17,1 C 17,2 C 87 % 1012,5 hPa 0,0 l/m 0,0 km/h (0 Bft) N 0 0 min 0,000 mm 0 W/m 15,0 C 17,2 C 0,0 km/h (0 Bft) 100 %
04.08.2014 01:00 17,1 C 17,1 C 17,2 C 87 % 1012,6 hPa 0,0 l/m 0,0 km/h (0 Bft) S-SO 157 0 min 0,000 mm 0 W/m 14,9 C 17,1 C 1,6 km/h (1 Bft) 100 %
04.08.2014 01:10 17,1 C 17,1 C 17,2 C 87 % 1012,6 hPa 0,0 l/m 0,0 km/h (0 Bft) S-SO 157 0 min 0,000 mm 0 W/m 14,9 C 17,1 C 1,6 km/h (1 Bft) 99 %
04.08.2014 01:20 17,1 C 17,1 C 17,1 C 87 % 1012,7 hPa 0,0 l/m 0,0 km/h (0 Bft) N 0 0 min 0,000 mm 0 W/m 14,9 C 17,1 C 0,0 km/h (0 Bft) 99 %
04.08.2014 01:30 17,1 C 17,1 C 17,1 C 87 % 1012,7 hPa 0,0 l/m 0,0 km/h (0 Bft) S-SO 157 0 min 0,000 mm 0 W/m 14,9 C 17,1 C 1,6 km/h (1 Bft) 100 %
04.08.2014 01:40 17,1 C 17,1 C 17,1 C 87 % 1012,7 hPa 0,0 l/m 0,0 km/h (0 Bft) S-SO 157 0 min 0,000 mm 0 W/m 14,9 C 17,1 C 1,6 km/h (1 Bft) 100 %
04.08.2014 01:50 17,1 C 17,1 C 17,1 C 87 % 1012,9 hPa 0,0 l/m 0,0 km/h (0 Bft) S-SO 157 0 min 0,000 mm 0 W/m 14,9 C 17,1 C 1,6 km/h (1 Bft) 100 %
04.08.2014 02:00 17,1 C 17,1 C 17,1 C 87 % 1012,9 hPa 0,0 l/m 0,0 km/h (0 Bft) S-SO 157 0 min 0,000 mm 0 W/m 14,9 C 17,1 C 1,6 km/h (1 Bft) 100 %
04.08.2014 02:10 17,1 C 17,0 C 17,1 C 87 % 1012,8 hPa 0,0 l/m 0,0 km/h (0 Bft) SO 135 0 min 0,000 mm 0 W/m 14,9 C 17,1 C 1,6 km/h (1 Bft) 99 %
04.08.2014 02:20 17,1 C 17,0 C 17,1 C 87 % 1013,0 hPa 0,0 l/m 0,0 km/h (0 Bft) SO 135 0 min 0,000 mm 0 W/m 14,9 C 17,1 C 1,6 km/h (1 Bft) 100 %
04.08.2014 02:30 17,1 C 17,1 C 17,1 C 87 % 1012,9 hPa 0,0 l/m 0,0 km/h (0 Bft) SO 135 0 min 0,000 mm 0 W/m 14,9 C 17,1 C 4,8 km/h (1 Bft) 99 %
04.08.2014 02:40 17,1 C 17,1 C 17,1 C 87 % 1012,9 hPa 0,0 l/m 0,0 km/h (0 Bft) SO 135 0 min 0,000 mm 0 W/m 14,9 C 17,1 C 1,6 km/h (1 Bft) 100 %
04.08.2014 02:50 17,1 C 17,1 C 17,1 C 87 % 1012,9 hPa 0,0 l/m 0,0 km/h (0 Bft) SO 135 0 min 0,000 mm 0 W/m 14,9 C 17,1 C 1,6 km/h (1 Bft) 99 %
04.08.2014 03:00 17,1 C 17,1 C 17,1 C 87 % 1012,9 hPa 0,0 l/m 0,0 km/h (0 Bft) SO 135 0 min 0,000 mm 0 W/m 14,9 C 17,1 C 1,6 km/h (1 Bft) 100 %
04.08.2014 03:10 17,1 C 17,1 C 17,1 C 87 % 1013,0 hPa 0,0 l/m 0,0 km/h (0 Bft) N 0 0 min 0,000 mm 0 W/m 14,9 C 17,1 C 0,0 km/h (0 Bft) 100 %
04.08.2014 03:20 17,0 C 17,0 C 17,1 C 87 % 1012,9 hPa 0,0 l/m 0,0 km/h (0 Bft) N 0 0 min 0,000 mm 0 W/m 14,8 C 17,0 C 0,0 km/h (0 Bft) 99 %
04.08.2014 03:30 16,8 C 16,8 C 17,0 C 88 % 1013,0 hPa 0,0 l/m 0,0 km/h (0 Bft) SO 135 0 min 0,000 mm 0 W/m 14,8 C 16,8 C 1,6 km/h (1 Bft) 100 %
04.08.2014 03:40 16,8 C 16,8 C 16,8 C 88 % 1013,0 hPa 0,0 l/m 0,0 km/h (0 Bft) SO 135 0 min 0,000 mm 0 W/m 14,8 C 16,8 C 1,6 km/h (1 Bft) 100 %
04.08.2014 03:50 16,8 C 16,8 C 16,8 C 88 % 1013,1 hPa 0,0 l/m 0,0 km/h (0 Bft) SO 135 0 min 0,000 mm 0 W/m 14,8 C 16,8 C 1,6 km/h (1 Bft) 100 %
04.08.2014 04:00 16,8 C 16,8 C 16,8 C 88 % 1013,2 hPa 0,0 l/m 0,0 km/h (0 Bft) SO 135 0 min 0,000 mm 0 W/m 14,8 C 16,8 C 1,6 km/h (1 Bft) 99 %
04.08.2014 04:10 16,8 C 16,8 C 16,8 C 88 % 1013,2 hPa 0,0 l/m 0,0 km/h (0 Bft) SO 135 0 min 0,000 mm 0 W/m 14,8 C 16,8 C 1,6 km/h (1 Bft) 100 %
04.08.2014 04:20 16,7 C 16,7 C 16,8 C 87 % 1013,2 hPa 0,0 l/m 0,0 km/h (0 Bft) N 0 0 min 0,000 mm 0 W/m 14,5 C 16,7 C 0,0 km/h (0 Bft) 98 %
04.08.2014 04:30 16,7 C 16,7 C 16,7 C 87 % 1013,1 hPa 0,0 l/m 0,0 km/h (0 Bft) SO 135 0 min 0,000 mm 0 W/m 14,5 C 16,7 C 1,6 km/h (1 Bft) 100 %
04.08.2014 04:40 16,6 C 16,6 C 16,7 C 87 % 1013,1 hPa 0,0 l/m 0,0 km/h (0 Bft) SO 135 0 min 0,000 mm 0 W/m 14,4 C 16,6 C 1,6 km/h (1 Bft) 100 %
04.08.2014 04:50 16,5 C 16,5 C 16,6 C 88 % 1013,2 hPa 0,0 l/m 0,0 km/h (0 Bft) SO 135 0 min 0,000 mm 0 W/m 14,5 C 16,5 C 1,6 km/h (1 Bft) 90 %
04.08.2014 05:00 16,5 C 16,5 C 16,5 C 88 % 1013,1 hPa 0,0 l/m 0,0 km/h (0 Bft) SO 135 0 min 0,000 mm 0 W/m 14,5 C 16,5 C 1,6 km/h (1 Bft) 100 %
04.08.2014 05:10 16,5 C 16,5 C 16,5 C 88 % 1013,2 hPa 0,0 l/m 0,0 km/h (0 Bft) SO 135 0 min 0,000 mm 0 W/m 14,5 C 16,5 C 1,6 km/h (1 Bft) 99 %
04.08.2014 05:20 16,4 C 16,4 C 16,5 C 88 % 1013,2 hPa 0,0 l/m 0,0 km/h (0 Bft) N 0 0 min 0,000 mm 0 W/m 14,4 C 16,4 C 0,0 km/h (0 Bft) 100 %
04.08.2014 05:30 16,3 C 16,3 C 16,4 C 87 % 1013,3 hPa 0,0 l/m 0,0 km/h (0 Bft) SO 135 0 min 0,000 mm 0 W/m 14,1 C 16,3 C 1,6 km/h (1 Bft) 99 %
04.08.2014 05:40 16,2 C 16,2 C 16,3 C 88 % 1013,3 hPa 0,0 l/m 0,0 km/h (0 Bft) S-SO 157 0 min 0,000 mm 0 W/m 14,2 C 16,2 C 1,6 km/h (1 Bft) 100 %
04.08.2014 05:50 16,1 C 16,1 C 16,2 C 88 % 1013,2 hPa 0,0 l/m 0,0 km/h (0 Bft) S-SO 157 0 min 0,000 mm 0 W/m 14,1 C 16,1 C 1,6 km/h (1 Bft) 100 %
04.08.2014 06:00 15,9 C 15,9 C 16,0 C 88 % 1013,3 hPa 0,0 l/m 0,0 km/h (0 Bft) S-SO 157 0 min 0,000 mm 0 W/m 13,9 C 15,9 C 1,6 km/h (1 Bft) 100 %
04.08.2014 06:10 15,9 C 15,9 C 15,9 C 88 % 1013,5 hPa 0,0 l/m 0,0 km/h (0 Bft) S-SO 157 0 min 0,000 mm 5 W/m 13,9 C 15,9 C 1,6 km/h (1 Bft) 100 %
04.08.2014 06:20 15,8 C 15,8 C 15,9 C 88 % 1013,5 hPa 0,0 l/m 0,0 km/h (0 Bft) S-SO 157 0 min 0,000 mm 9 W/m 13,8 C 15,8 C 1,6 km/h (1 Bft) 99 %
04.08.2014 06:30 15,8 C 15,8 C 15,9 C 88 % 1013,6 hPa 0,0 l/m 0,0 km/h (0 Bft) S-SO 157 0 min 0,000 mm 12 W/m 13,8 C 15,8 C 1,6 km/h (1 Bft) 100 %
04.08.2014 06:40 15,8 C 15,8 C 15,8 C 88 % 1013,6 hPa 0,0 l/m 0,0 km/h (0 Bft) N 0 0 min 0,000 mm 16 W/m 13,8 C 15,8 C 0,0 km/h (0 Bft) 100 %
04.08.2014 06:50 15,8 C 15,8 C 15,8 C 88 % 1013,6 hPa 0,0 l/m 0,0 km/h (0 Bft) N 0 0 min 0,000 mm 28 W/m 13,8 C 15,8 C 0,0 km/h (0 Bft) 100 %
04.08.2014 07:00 15,9 C 15,8 C 15,9 C 88 % 1013,9 hPa 0,0 l/m 0,0 km/h (0 Bft) S-SO 157 0 min 0,000 mm 37 W/m 13,9 C 15,9 C 1,6 km/h (1 Bft) 100 %
04.08.2014 07:10 16,1 C 15,9 C 16,1 C 88 % 1013,8 hPa 0,0 l/m 0,0 km/h (0 Bft) N 0 0 min 0,000 mm 49 W/m 14,1 C 16,1 C 0,0 km/h (0 Bft) 100 %
04.08.2014 07:20 16,2 C 16,1 C 16,2 C 88 % 1013,9 hPa 0,0 l/m 0,0 km/h (0 Bft) N 0 0 min 0,000 mm 69 W/m 14,2 C 16,2 C 0,0 km/h (0 Bft) 100 %
04.08.2014 07:30 16,3 C 16,2 C 16,3 C 88 % 1014,0 hPa 0,0 l/m 0,0 km/h (0 Bft) S-SO 157 0 min 0,000 mm 69 W/m 14,3 C 16,3 C 3,2 km/h (1 Bft) 100 %
04.08.2014 07:40 16,4 C 16,3 C 16,4 C 88 % 1014,0 hPa 0,0 l/m 0,0 km/h (0 Bft) S-SO 157 0 min 0,000 mm 69 W/m 14,4 C 16,4 C 1,6 km/h (1 Bft) 100 %
04.08.2014 07:50 16,4 C 16,4 C 16,4 C 88 % 1014,0 hPa 0,0 l/m 0,0 km/h (0 Bft) S 180 0 min 0,000 mm 49 W/m 14,4 C 16,4 C 1,6 km/h (1 Bft) 99 %
04.08.2014 08:00 16,4 C 16,3 C 16,4 C 88 % 1014,1 hPa 0,0 l/m 0,0 km/h (0 Bft) S 180 0 min 0,025 mm 42 W/m 14,4 C 16,4 C 1,6 km/h (1 Bft) 100 %
04.08.2014 08:10 16,5 C 16,4 C 16,5 C 88 % 1014,2 hPa 0,0 l/m 0,0 km/h (0 Bft) S-SW 202 0 min 0,000 mm 54 W/m 14,5 C 16,5 C 1,6 km/h (1 Bft) 100 %
04.08.2014 08:20 16,7 C 16,5 C 16,7 C 88 % 1014,3 hPa 0,0 l/m 0,0 km/h (0 Bft) SW 225 0 min 0,000 mm 91 W/m 14,7 C 16,7 C 1,6 km/h (1 Bft) 99 %
04.08.2014 08:30 17,1 C 16,7 C 17,1 C 87 % 1014,3 hPa 0,0 l/m 0,0 km/h (0 Bft) S-SW 202 0 min 0,000 mm 98 W/m 14,9 C 17,1 C 3,2 km/h (1 Bft) 100 %
04.08.2014 08:40 17,6 C 17,1 C 17,6 C 87 % 1014,3 hPa 0,0 l/m 0,0 km/h (0 Bft) S-SW 202 10 min 0,000 mm 322 W/m 15,4 C 17,6 C 4,8 km/h (1 Bft) 100 %
04.08.2014 08:50 18,1 C 17,6 C 18,1 C 87 % 1014,4 hPa 0,0 l/m 0,0 km/h (0 Bft) S-SO 157 10 min 0,000 mm 373 W/m 15,9 C 18,1 C 4,8 km/h (1 Bft) 100 %
04.08.2014 09:00 18,6 C 18,1 C 18,6 C 86 % 1014,5 hPa 0,0 l/m 1,6 km/h (1 Bft) S-SW 202 10 min 0,102 mm 401 W/m 16,2 C 18,6 C 8,0 km/h (2 Bft) 99 %
04.08.2014 09:10 18,7 C 18,6 C 18,7 C 86 % 1014,7 hPa 0,0 l/m 1,6 km/h (1 Bft) S 180 10 min 0,000 mm 573 W/m 16,3 C 18,7 C 6,4 km/h (2 Bft) 100 %
04.08.2014 09:20 18,9 C 18,7 C 18,9 C 85 % 1014,7 hPa 0,0 l/m 1,6 km/h (1 Bft) S-SW 202 10 min 0,000 mm 566 W/m 16,3 C 18,9 C 8,0 km/h (2 Bft) 100 %
04.08.2014 09:30 19,3 C 18,9 C 19,3 C 86 % 1014,8 hPa 0,0 l/m 3,2 km/h (1 Bft) S-SW 202 10 min 0,000 mm 592 W/m 16,9 C 19,3 C 11,3 km/h (2 Bft) 100 %
04.08.2014 09:40 19,7 C 19,3 C 19,7 C 84 % 1014,8 hPa 0,0 l/m 3,2 km/h (1 Bft) S-SW 202 10 min 0,000 mm 594 W/m 16,9 C 19,7 C 11,3 km/h (2 Bft) 100 %
04.08.2014 09:50 20,1 C 19,7 C 20,1 C 84 % 1014,8 hPa 0,0 l/m 3,2 km/h (1 Bft) S-SW 202 10 min 0,000 mm 689 W/m 17,3 C 20,1 C 14,5 km/h (3 Bft) 100 %
04.08.2014 10:00 20,3 C 20,1 C 20,3 C 84 % 1014,6 hPa 0,0 l/m 1,6 km/h (1 Bft) S-SW 202 10 min 0,254 mm 578 W/m 17,5 C 20,3 C 9,7 km/h (2 Bft) 100 %
04.08.2014 10:10 20,4 C 20,2 C 20,4 C 83 % 1014,6 hPa 0,0 l/m 1,6 km/h (1 Bft) S-SW 202 10 min 0,000 mm 656 W/m 17,4 C 20,4 C 8,0 km/h (2 Bft) 100 %
04.08.2014 10:20 21,2 C 20,5 C 21,2 C 77 % 1014,5 hPa 0,0 l/m 3,2 km/h (1 Bft) S-SW 202 10 min 0,000 mm 728 W/m 17,0 C 21,2 C 9,7 km/h (2 Bft) 99 %
04.08.2014 10:30 21,7 C 21,2 C 21,7 C 77 % 1014,5 hPa 0,0 l/m 3,2 km/h (1 Bft) S-SW 202 10 min 0,000 mm 782 W/m 17,5 C 21,7 C 12,9 km/h (3 Bft) 100 %
04.08.2014 10:40 21,8 C 21,8 C 21,9 C 73 % 1014,5 hPa 0,0 l/m 4,8 km/h (1 Bft) S-SW 202 10 min 0,000 mm 694 W/m 16,7 C 21,8 C 12,9 km/h (3 Bft) 100 %
04.08.2014 10:50 21,9 C 21,7 C 21,9 C 78 % 1014,6 hPa 0,0 l/m 1,6 km/h (1 Bft) SW 225 10 min 0,000 mm 721 W/m 17,9 C 21,9 C 8,0 km/h (2 Bft) 97 %
04.08.2014 11:00 22,7 C 21,7 C 22,7 C 75 % 1014,6 hPa 0,0 l/m 1,2 km/h (1 Bft) S-SW 205 10 min 0,356 mm 772 W/m 18,0 C 22,7 C 11,3 km/h (2 Bft) 97 %
04.08.2014 11:10 23,1 C 22,7 C 23,1 C 72 % 1014,7 hPa 0,0 l/m 3,4 km/h (1 Bft) W-SW 239 10 min 0,000 mm 786 W/m 17,8 C 23,1 C 16,1 km/h (3 Bft) 98 %
04.08.2014 11:20 23,3 C 23,0 C 23,3 C 71 % 1014,6 hPa 0,0 l/m 2,6 km/h (1 Bft) W-NW 292 10 min 0,000 mm 745 W/m 17,7 C 23,3 C 11,3 km/h (2 Bft) 97 %
04.08.2014 11:30 23,6 C 23,3 C 23,6 C 72 % 1014,8 hPa 0,0 l/m 4,4 km/h (1 Bft) W-SW 248 10 min 0,000 mm 835 W/m 18,2 C 23,6 C 12,9 km/h (3 Bft) 97 %
04.08.2014 11:40 23,6 C 23,5 C 23,6 C 68 % 1014,8 hPa 0,0 l/m 4,4 km/h (1 Bft) SW 225 10 min 0,000 mm 821 W/m 17,3 C 23,6 C 17,7 km/h (3 Bft) 97 %
04.08.2014 11:50 23,5 C 23,4 C 23,6 C 71 % 1014,8 hPa 0,0 l/m 6,4 km/h (2 Bft) W-SW 258 10 min 0,000 mm 812 W/m 17,9 C 23,5 C 22,5 km/h (4 Bft) 97 %
04.08.2014 12:00 24,0 C 23,5 C 24,0 C 65 % 1014,7 hPa 0,0 l/m 6,9 km/h (2 Bft) NW 309 10 min 0,482 mm 911 W/m 17,0 C 23,9 C 16,1 km/h (3 Bft) 97 %
04.08.2014 12:10 23,8 C 23,8 C 24,1 C 68 % 1014,6 hPa 0,0 l/m 10,3 km/h (2 Bft) SW 218 10 min 0,000 mm 853 W/m 17,5 C 22,8 C 20,9 km/h (4 Bft) 97 %
04.08.2014 12:20 23,8 C 23,8 C 23,9 C 64 % 1014,6 hPa 0,0 l/m 5,2 km/h (1 Bft) SW 228 10 min 0,000 mm 185 W/m 16,6 C 23,8 C 20,9 km/h (4 Bft) 97 %
04.08.2014 12:30 23,5 C 23,5 C 23,8 C 70 % 1014,5 hPa 0,0 l/m 5,6 km/h (1 Bft) SW 227 10 min 0,000 mm 886 W/m 17,7 C 23,5 C 17,7 km/h (3 Bft) 98 %
04.08.2014 12:40 23,4 C 23,4 C 23,6 C 65 % 1014,5 hPa 0,0 l/m 6,9 km/h (2 Bft) W-NW 290 10 min 0,000 mm 984 W/m 16,4 C 23,3 C 17,7 km/h (3 Bft) 97 %
04.08.2014 12:50 23,9 C 23,4 C 23,9 C 67 % 1014,4 hPa 0,0 l/m 5,4 km/h (1 Bft) SW 223 10 min 0,000 mm 960 W/m 17,4 C 23,9 C 14,5 km/h (3 Bft) 98 %
04.08.2014 13:00 24,2 C 23,9 C 24,2 C 61 % 1014,3 hPa 0,0 l/m 8,8 km/h (2 Bft) W 262 10 min 0,457 mm 858 W/m 16,2 C 23,6 C 17,7 km/h (3 Bft) 97 %
04.08.2014 13:10 24,4 C 24,2 C 24,4 C 62 % 1014,1 hPa 0,0 l/m 6,2 km/h (2 Bft) W 265 10 min 0,000 mm 911 W/m 16,6 C 24,4 C 16,1 km/h (3 Bft) 98 %
04.08.2014 13:20 24,6 C 24,4 C 24,6 C 63 % 1014,2 hPa 0,0 l/m 6,9 km/h (2 Bft) S-SW 196 10 min 0,000 mm 963 W/m 17,1 C 24,5 C 19,3 km/h (3 Bft) 98 %
04.08.2014 13:30 24,3 C 24,3 C 24,6 C 60 % 1014,2 hPa 0,0 l/m 9,5 km/h (2 Bft) SW 225 10 min 0,000 mm 925 W/m 16,0 C 23,5 C 24,1 km/h (4 Bft) 100 %
04.08.2014 13:40 24,7 C 24,3 C 24,7 C 60 % 1014,1 hPa 0,0 l/m 3,9 km/h (1 Bft) W-SW 257 10 min 0,000 mm 935 W/m 16,4 C 24,7 C 17,7 km/h (3 Bft) 100 %
04.08.2014 13:50 25,1 C 24,7 C 25,1 C 58 % 1014,0 hPa 0,0 l/m 7,5 km/h (2 Bft) W-NW 303 10 min 0,000 mm 204 W/m 16,2 C 24,8 C 19,3 km/h (3 Bft) 100 %
04.08.2014 14:00 25,2 C 25,1 C 25,2 C 55 % 1013,8 hPa 0,0 l/m 7,1 km/h (2 Bft) SW 219 10 min 0,534 mm 831 W/m 15,5 C 25,0 C 19,3 km/h (3 Bft) 100 %
04.08.2014 14:10 25,4 C 25,2 C 25,4 C 55 % 1013,9 hPa 0,0 l/m 6,9 km/h (2 Bft) S 182 10 min 0,000 mm 830 W/m 15,7 C 25,3 C 17,7 km/h (3 Bft) 100 %
04.08.2014 14:20 25,2 C 25,2 C 25,4 C 59 % 1013,8 hPa 0,0 l/m 8,5 km/h (2 Bft) SW 220 10 min 0,000 mm 851 W/m 16,6 C 24,7 C 22,5 km/h (4 Bft) 100 %
04.08.2014 14:30 25,3 C 25,2 C 25,3 C 57 % 1013,7 hPa 0,0 l/m 8,8 km/h (2 Bft) S-SW 199 10 min 0,000 mm 896 W/m 16,2 C 24,7 C 20,9 km/h (4 Bft) 100 %
04.08.2014 14:40 25,2 C 25,2 C 25,3 C 57 % 1013,6 hPa 0,0 l/m 6,1 km/h (2 Bft) W 265 10 min 0,000 mm 874 W/m 16,1 C 25,2 C 17,7 km/h (3 Bft) 100 %
04.08.2014 14:50 25,6 C 25,2 C 25,6 C 56 % 1013,6 hPa 0,0 l/m 5,5 km/h (1 Bft) SW 225 10 min 0,000 mm 900 W/m 16,2 C 25,6 C 24,1 km/h (4 Bft) 100 %
04.08.2014 15:00 25,9 C 25,6 C 25,9 C 55 % 1013,6 hPa 0,0 l/m 6,1 km/h (2 Bft) SW 234 10 min 0,508 mm 165 W/m 16,2 C 25,9 C 16,1 km/h (3 Bft) 100 %
04.08.2014 15:10 25,4 C 25,4 C 25,9 C 56 % 1013,6 hPa 0,0 l/m 6,2 km/h (2 Bft) W-NW 287 10 min 0,000 mm 165 W/m 16,0 C 25,4 C 17,7 km/h (3 Bft) 100 %
04.08.2014 15:20 25,6 C 25,4 C 25,6 C 59 % 1013,7 hPa 0,0 l/m 7,1 km/h (2 Bft) W 281 10 min 0,000 mm 756 W/m 17,0 C 25,4 C 19,3 km/h (3 Bft) 100 %
04.08.2014 15:30 26,0 C 25,6 C 26,0 C 56 % 1013,8 hPa 0,0 l/m 6,1 km/h (2 Bft) W-SW 257 10 min 0,000 mm 735 W/m 16,5 C 26,0 C 14,5 km/h (3 Bft) 100 %
04.08.2014 15:40 26,0 C 26,0 C 26,1 C 58 % 1013,8 hPa 0,0 l/m 5,6 km/h (1 Bft) W-NW 299 10 min 0,000 mm 765 W/m 17,1 C 26,0 C 19,3 km/h (3 Bft) 100 %
04.08.2014 15:50 26,0 C 26,0 C 26,1 C 55 % 1013,8 hPa 0,0 l/m 4,8 km/h (1 Bft) W-SW 252 0 min 0,000 mm 144 W/m 16,2 C 26,0 C 16,1 km/h (3 Bft) 100 %
04.08.2014 16:00 25,8 C 25,7 C 26,0 C 58 % 1013,7 hPa 0,0 l/m 4,5 km/h (1 Bft) W-NW 288 10 min 0,432 mm 717 W/m 16,9 C 25,8 C 16,1 km/h (3 Bft) 100 %
04.08.2014 16:10 26,0 C 25,8 C 26,0 C 58 % 1013,7 hPa 0,0 l/m 3,3 km/h (1 Bft) S-SW 210 10 min 0,000 mm 230 W/m 17,1 C 26,0 C 14,5 km/h (3 Bft) 100 %
04.08.2014 16:20 25,9 C 25,8 C 26,0 C 56 % 1013,7 hPa 0,0 l/m 5,8 km/h (2 Bft) W-NW 292 10 min 0,000 mm 199 W/m 16,4 C 25,9 C 17,7 km/h (3 Bft) 100 %
04.08.2014 16:30 25,8 C 25,8 C 26,0 C 57 % 1013,6 hPa 0,0 l/m 4,6 km/h (1 Bft) W-NW 298 10 min 0,000 mm 635 W/m 16,6 C 25,8 C 16,1 km/h (3 Bft) 100 %
04.08.2014 16:40 25,7 C 25,7 C 25,8 C 57 % 1013,7 hPa 0,0 l/m 9,3 km/h (2 Bft) SW 229 10 min 0,000 mm 598 W/m 16,5 C 25,1 C 20,9 km/h (4 Bft) 100 %
04.08.2014 16:50 25,7 C 25,6 C 25,7 C 57 % 1013,7 hPa 0,0 l/m 5,4 km/h (1 Bft) W 263 10 min 0,000 mm 548 W/m 16,5 C 25,7 C 16,1 km/h (3 Bft) 100 %
04.08.2014 17:00 25,7 C 25,6 C 25,7 C 55 % 1013,6 hPa 0,0 l/m 4,0 km/h (1 Bft) NW 304 10 min 0,304 mm 336 W/m 16,0 C 25,7 C 16,1 km/h (3 Bft) 100 %
04.08.2014 17:10 25,7 C 25,7 C 25,8 C 56 % 1013,6 hPa 0,0 l/m 7,5 km/h (2 Bft) SW 230 0 min 0,000 mm 118 W/m 16,2 C 25,4 C 19,3 km/h (3 Bft) 100 %
04.08.2014 17:20 25,6 C 25,6 C 25,7 C 54 % 1013,6 hPa 0,0 l/m 5,4 km/h (1 Bft) W-NW 288 0 min 0,000 mm 84 W/m 15,6 C 25,6 C 16,1 km/h (3 Bft) 100 %
04.08.2014 17:30 25,5 C 25,5 C 25,6 C 57 % 1013,4 hPa 0,0 l/m 6,6 km/h (2 Bft) S-SW 205 0 min 0,000 mm 83 W/m 16,3 C 25,5 C 16,1 km/h (3 Bft) 100 %
04.08.2014 17:40 25,3 C 25,3 C 25,5 C 57 % 1013,3 hPa 0,0 l/m 5,6 km/h (1 Bft) W-SW 254 0 min 0,000 mm 81 W/m 16,2 C 25,3 C 17,7 km/h (3 Bft) 100 %
04.08.2014 17:50 25,2 C 25,2 C 25,3 C 56 % 1013,4 hPa 0,0 l/m 4,5 km/h (1 Bft) W-NW 291 0 min 0,000 mm 72 W/m 15,8 C 25,2 C 14,5 km/h (3 Bft) 100 %
04.08.2014 18:00 25,2 C 25,2 C 25,3 C 54 % 1013,6 hPa 0,0 l/m 7,9 km/h (2 Bft) W-NW 294 0 min 0,000 mm 70 W/m 15,2 C 24,8 C 20,9 km/h (4 Bft) 100 %
04.08.2014 18:10 25,2 C 25,1 C 25,2 C 55 % 1013,8 hPa 0,0 l/m 9,9 km/h (2 Bft) W-SW 242 0 min 0,102 mm 79 W/m 15,5 C 24,4 C 20,9 km/h (4 Bft) 100 %
04.08.2014 18:20 24,8 C 24,8 C 25,2 C 54 % 1013,9 hPa 0,0 l/m 7,9 km/h (2 Bft) W 277 0 min 0,000 mm 83 W/m 14,8 C 24,4 C 19,3 km/h (3 Bft) 100 %
04.08.2014 18:30 24,3 C 24,3 C 24,8 C 54 % 1014,0 hPa 0,0 l/m 6,1 km/h (2 Bft) W-SW 244 0 min 0,000 mm 76 W/m 14,4 C 24,3 C 16,1 km/h (3 Bft) 100 %
04.08.2014 18:40 24,0 C 24,0 C 24,3 C 59 % 1014,1 hPa 0,0 l/m 1,7 km/h (1 Bft) W 280 0 min 0,000 mm 107 W/m 15,5 C 24,0 C 8,0 km/h (2 Bft) 100 %
04.08.2014 18:50 23,9 C 23,9 C 24,0 C 60 % 1014,1 hPa 0,0 l/m 2,2 km/h (1 Bft) W 263 0 min 0,000 mm 107 W/m 15,7 C 23,9 C 8,0 km/h (2 Bft) 100 %
04.08.2014 19:00 23,7 C 23,7 C 23,9 C 60 % 1014,1 hPa 0,0 l/m 3,8 km/h (1 Bft) W-SW 246 0 min 0,102 mm 97 W/m 15,5 C 23,7 C 11,3 km/h (2 Bft) 100 %
04.08.2014 19:10 23,5 C 23,5 C 23,7 C 62 % 1014,1 hPa 0,0 l/m 5,4 km/h (1 Bft) NW 317 0 min 0,000 mm 98 W/m 15,8 C 23,5 C 14,5 km/h (3 Bft) 100 %
04.08.2014 19:20 23,2 C 23,2 C 23,5 C 63 % 1014,1 hPa 0,0 l/m 10,3 km/h (2 Bft) NW 308 0 min 0,000 mm 98 W/m 15,8 C 22,1 C 24,1 km/h (4 Bft) 100 %
04.08.2014 19:30 23,0 C 23,0 C 23,2 C 63 % 1014,3 hPa 0,0 l/m 13,7 km/h (3 Bft) W-NW 295 0 min 0,000 mm 81 W/m 15,6 C 21,1 C 30,6 km/h (5 Bft) 100 %
04.08.2014 19:40 22,7 C 22,7 C 23,0 C 63 % 1014,5 hPa 0,0 l/m 11,7 km/h (2 Bft) W-NW 289 0 min 0,000 mm 56 W/m 15,3 C 21,2 C 27,4 km/h (4 Bft) 100 %
04.08.2014 19:50 22,0 C 22,0 C 22,7 C 65 % 1014,8 hPa 0,0 l/m 21,9 km/h (4 Bft) W-NW 300 0 min 0,000 mm 40 W/m 15,1 C 18,5 C 40,2 km/h (6 Bft) 100 %
04.08.2014 20:00 21,2 C 21,2 C 22,0 C 67 % 1014,6 hPa 0,0 l/m 17,1 km/h (3 Bft) W-NW 286 0 min 0,127 mm 37 W/m 14,8 C 18,3 C 32,2 km/h (5 Bft) 100 %
04.08.2014 20:10 20,7 C 20,7 C 21,2 C 69 % 1014,7 hPa 0,0 l/m 16,5 km/h (3 Bft) N 5 0 min 0,000 mm 30 W/m 14,8 C 17,8 C 35,4 km/h (5 Bft) 100 %
04.08.2014 20:20 20,2 C 20,2 C 20,7 C 72 % 1014,6 hPa 0,0 l/m 11,0 km/h (2 Bft) NW 314 0 min 0,000 mm 25 W/m 15,0 C 18,6 C 25,7 km/h (4 Bft) 100 %
04.08.2014 20:30 19,9 C 19,9 C 20,2 C 74 % 1014,5 hPa 0,0 l/m 3,5 km/h (1 Bft) NW 324 0 min 0,000 mm 28 W/m 15,1 C 19,9 C 9,7 km/h (2 Bft) 99 %
04.08.2014 20:40 19,8 C 19,8 C 19,9 C 75 % 1014,6 hPa 0,0 l/m 2,0 km/h (1 Bft) NW 325 0 min 0,000 mm 18 W/m 15,2 C 19,8 C 8,0 km/h (2 Bft) 100 %
04.08.2014 20:50 19,4 C 19,4 C 19,8 C 74 % 1014,7 hPa 0,0 l/m 2,6 km/h (1 Bft) N-NW 340 0 min 0,000 mm 11 W/m 14,6 C 19,4 C 14,5 km/h (3 Bft) 100 %
04.08.2014 21:00 19,2 C 19,2 C 19,5 C 75 % 1015,1 hPa 0,0 l/m 0,3 km/h (0 Bft) N-NW 348 0 min 0,050 mm 0 W/m 14,7 C 19,2 C 4,8 km/h (1 Bft) 100 %
04.08.2014 21:10 19,0 C 19,0 C 19,2 C 76 % 1015,2 hPa 0,0 l/m 0,0 km/h (0 Bft) N-NW 337 0 min 0,000 mm 0 W/m 14,7 C 19,0 C 1,6 km/h (1 Bft) 97 %
04.08.2014 21:20 18,8 C 18,8 C 19,0 C 77 % 1015,3 hPa 0,0 l/m 0,0 km/h (0 Bft) N 0 0 min 0,000 mm 0 W/m 14,7 C 18,8 C 0,0 km/h (0 Bft) 98 %
04.08.2014 21:30 18,6 C 18,6 C 18,8 C 79 % 1015,4 hPa 0,0 l/m 0,0 km/h (0 Bft) N 0 0 min 0,000 mm 0 W/m 14,9 C 18,6 C 0,0 km/h (0 Bft) 98 %
04.08.2014 21:40 18,4 C 18,4 C 18,8 C 79 % 1015,4 hPa 0,0 l/m 0,0 km/h (0 Bft) N-NW 340 0 min 0,000 mm 0 W/m 14,7 C 18,4 C 1,6 km/h (1 Bft) 100 %
04.08.2014 21:50 18,3 C 18,3 C 18,4 C 79 % 1015,5 hPa 0,0 l/m 0,0 km/h (0 Bft) N-NW 340 0 min 0,000 mm 0 W/m 14,6 C 18,3 C 0,0 km/h (0 Bft) 100 %
04.08.2014 22:00 18,1 C 18,1 C 18,3 C 80 % 1015,5 hPa 0,0 l/m 0,0 km/h (0 Bft) N-NW 340 0 min 0,000 mm 0 W/m 14,6 C 18,1 C 0,0 km/h (0 Bft) 100 %
04.08.2014 22:10 17,9 C 17,9 C 18,1 C 82 % 1015,5 hPa 0,0 l/m 0,0 km/h (0 Bft) N-NW 337 0 min 0,000 mm 0 W/m 14,8 C 17,9 C 1,6 km/h (1 Bft) 98 %
04.08.2014 22:20 17,7 C 17,7 C 17,9 C 82 % 1015,4 hPa 0,0 l/m 0,0 km/h (0 Bft) N 0 0 min 0,000 mm 0 W/m 14,6 C 17,7 C 0,0 km/h (0 Bft) 97 %
04.08.2014 22:30 17,6 C 17,6 C 17,7 C 83 % 1015,5 hPa 0,0 l/m 0,0 km/h (0 Bft) N 0 0 min 0,000 mm 0 W/m 14,7 C 17,6 C 0,0 km/h (0 Bft) 98 %
04.08.2014 22:40 17,3 C 17,3 C 17,6 C 84 % 1015,7 hPa 0,0 l/m 0,0 km/h (0 Bft) N-NW 337 0 min 0,000 mm 0 W/m 14,6 C 17,3 C 1,6 km/h (1 Bft) 98 %
04.08.2014 22:50 17,1 C 17,1 C 17,3 C 85 % 1015,9 hPa 0,0 l/m 0,0 km/h (0 Bft) N-NO 22 0 min 0,000 mm 0 W/m 14,6 C 17,1 C 1,6 km/h (1 Bft) 97 %
04.08.2014 23:00 16,9 C 16,9 C 17,1 C 85 % 1015,8 hPa 0,0 l/m 0,0 km/h (0 Bft) NO 45 0 min 0,025 mm 0 W/m 14,4 C 16,9 C 1,6 km/h (1 Bft) 98 %
04.08.2014 23:10 17,0 C 16,9 C 17,0 C 85 % 1015,9 hPa 0,0 l/m 0,0 km/h (0 Bft) N 0 0 min 0,000 mm 0 W/m 14,5 C 17,0 C 0,0 km/h (0 Bft) 97 %
04.08.2014 23:20 17,1 C 17,0 C 17,1 C 85 % 1016,0 hPa 0,0 l/m 0,0 km/h (0 Bft) NO 45 0 min 0,000 mm 0 W/m 14,6 C 17,1 C 1,6 km/h (1 Bft) 98 %
04.08.2014 23:30 17,1 C 17,1 C 17,1 C 85 % 1016,1 hPa 0,0 l/m 0,0 km/h (0 Bft) NO 45 0 min 0,000 mm 0 W/m 14,6 C 17,1 C 1,6 km/h (1 Bft) 97 %
04.08.2014 23:40 17,1 C 17,1 C 17,1 C 85 % 1016,3 hPa 0,0 l/m 0,0 km/h (0 Bft) W-NW 292 0 min 0,000 mm 0 W/m 14,6 C 17,1 C 3,2 km/h (1 Bft) 98 %
04.08.2014 23:50 17,1 C 17,1 C 17,1 C 85 % 1016,2 hPa 0,0 l/m 0,0 km/h (0 Bft) SW 225 0 min 0,000 mm 0 W/m 14,6 C 17,1 C 6,4 km/h (2 Bft) 98 %
_ Min-Zeit 06:20 06:20 06:40 17:20 00:00 - 00:00 - - - - - 06:20 06:20 00:00 04:50
Minimum _ 15,8 C 15,8 C 15,8 C 54 % 1012,2 hPa - 0,0 km/h (0 Bft) - - - - - 13,8 C 15,8 C 0,0 km/h (0 Bft) 90 %
_ Max-Zeit 15:40 15:40 15:40 03:30 23:40 00:00 19:50 - - 08:40 14:00 12:40 11:30 15:30 19:50 00:00
Maximum _ 26,1 C 26,0 C 26,1 C 88 % 1016,3 hPa 0,0 l/m 21,9 km/h
W-NW (4 Bft)
- - 10 min 0,534 mm 984 W/m 18,2 C 26,0 C 40,2 km/h
NW (6 Bft)
100 %
Durchschnitt _ 20,3 C 20,2 C 20,4 C 75 % 1014,0 hPa #0,0 l/m 3,0 km/h (1 Bft) S-SW - #8:20 h #3,860 mm 405 W/m 15,5 C 20,1 C 9,3 km/h (2 Bft) 99 %
PRIVATE WETTERSTATION BILLIGHEIM-ALLFELD - www.neckar-odenwald-wetter.de - Holger Sonntag